Orbital Elements at Epoch 2459200.5 (2020-Dec-17.0) TDB
Reference: JPL 36 (heliocentric ecliptic J2000)
Element | Value | Uncertainty (1-sigma) | Units |
e | .07601214073733217 | 3.6107e-08 | |
a | 2.268695456655533 | 7.1007e-09 | au |
q | 2.096247058314086 | 8.1544e-08 | au |
i | 3.208656452858539 | 4.3774e-06 | deg |
node | 195.6221269265107 | 5.5754e-05 | deg |
peri | 122.35047034 | 6.1337e-05 | deg |
M | 229.9691985785744 | 2.5826e-05 | deg |
tp | 2459651.323417966311 (2022-Mar-12.82341797) | 8.9937e-05 | TDB |
period | 1248.138354095616 3.42 | 5.8598e-06 1.604e-08 | d yr |
n | .2884295629716877 | 1.3541e-09 | deg/d |
Q | 2.441143854996979 | 7.6405e-09 | au |
|
| | Orbit Determination Parameters
Additional Information
|